KC4GS-13 Weather Reports


Display with metric or nautical units.
time (UTC)temp
F
wind
direction
speed
MPH
gust
MPH
rain 1hr
in
rain 24hr
in
rain mn
in
humidity
%
barometer
mb
20260506090819 62 114 0.0 0.0 0.00 0.00 0.00 85 1015.1
20260506090317 62 113 0.0 0.0 0.00 0.00 0.00 85 1015.2
20260506085813 62 114 0.0 0.0 0.00 0.00 0.00 85 1015.4
20260506085309 62 112 0.0 0.0 0.00 0.00 0.00 85 1015.5
20260506084806 62 114 0.0 0.0 0.00 0.00 0.00 85 1015.7
20260506084302 62 114 0.0 0.0 0.00 0.00 0.00 84 1015.9
20260506083759 62 118 0.0 0.0 0.00 0.00 0.00 84 1015.4
20260506083257 62 115 0.0 0.0 0.00 0.00 0.00 84 1015.8
20260506082754 62 115 0.0 0.0 0.00 0.00 0.00 84 1015.5
20260506082250 62 116 0.0 0.0 0.00 0.00 0.00 84 1015.8
20260506081747 62 116 0.0 0.0 0.00 0.00 0.00 84 1015.7
20260506081245 62 115 0.0 0.0 0.00 0.00 0.00 84 1015.8
20260506080743 62 116 0.0 0.0 0.00 0.00 0.00 83 1015.7
20260506080239 62 114 0.0 0.0 0.00 0.00 0.00 83 1015.7
20260506073223 63 115 0.0 0.0 0.00 0.00 0.00 81 1015.7
20260506072720 63 117 0.0 0.0 0.00 0.00 0.00 81 1015.8
20260506072218 64 116 0.0 0.0 0.00 0.00 0.00 81 1015.8
20260506071715 64 116 0.0 0.0 0.00 0.00 0.00 80 1015.7
20260506071213 64 115 0.0 0.0 0.00 0.00 0.00 80 1015.7
20260506070709 64 113 0.0 0.0 0.00 0.00 0.00 80 1015.6
20260506070207 64 116 0.0 0.0 0.00 0.00 0.00 80 1015.7
20260506062143 65 114 0.0 0.0 0.00 0.00 0.00 78 1015.4
20260506061639 65 118 0.0 0.0 0.00 0.00 0.00 78 1015.5
20260506061137 65 120 0.0 0.0 0.00 0.00 0.00 78 1015.5
20260506060635 65 113 0.0 0.0 0.00 0.00 0.00 78 1015.7
20260506060132 65 114 0.0 0.0 0.00 0.00 0.00 77 1015.7
20260506051104 66 111 0.0 0.0 0.00 0.00 0.00 77 1016.2
20260506050602 66 112 0.0 0.0 0.00 0.00 0.00 77 1016.5
20260506045052 66 115 0.0 0.0 0.00 0.00 0.00 76 1016.2
20260506044550 66 109 0.0 0.0 0.00 0.00 0.00 76 1016.4
20260506044047 66 112 0.0 0.0 0.00 0.00 0.00 76 1016.3
20260506043544 66 113 0.0 0.0 0.00 0.00 0.00 77 1016.4
20260506043042 66 136 0.0 0.0 0.00 0.00 0.00 76 1016.2
20260506042541 66 112 0.0 0.0 0.00 0.00 0.00 76 1016.3
20260506042039 66 111 0.0 0.0 0.00 0.00 0.00 76 1016.5
20260506041537 66 110 0.0 0.0 0.00 0.00 0.00 76 1016.4
20260506041033 66 114 0.0 0.0 0.00 0.00 0.00 76 1016.3
20260506040531 66 120 0.0 0.0 0.00 0.00 0.00 76 1016.2
20260506040027 66 113 0.0 0.0 0.00 0.00 0.00 75 1016.2
20260506035524 66 113 0.0 0.0 0.00 0.00 0.00 75 1016.1
20260506035021 66 111 0.0 0.0 0.00 0.00 0.00 76 1016.3
20260506034519 66 109 0.0 0.0 0.00 0.00 0.00 76 1016.1
20260506034015 66 110 0.0 0.0 0.00 0.00 0.00 76 1016.2
20260506033513 66 104 0.0 0.0 0.00 0.00 0.00 76 1016.0
20260506033010 66 102 0.0 0.0 0.00 0.00 0.00 76 1015.7
20260506032507 65 112 0.0 0.0 0.00 0.00 0.00 76 1015.9
20260506032003 64 105 0.0 0.0 0.00 0.00 0.00 76 1016.2
20260506031501 64 102 0.0 0.0 0.00 0.00 0.00 75 1016.2
20260506030958 64 100 0.0 0.0 0.00 0.00 0.00 75 1016.1
20260506030456 64 104 0.0 0.0 0.00 0.00 0.00 75 1016.0
20260506025953 64 102 0.0 0.0 0.00 0.00 0.00 75 1016.1
20260506025449 64 110 0.0 0.0 0.00 0.00 0.00 74 1016.1
20260506024946 64 111 0.0 0.0 0.00 0.00 0.00 75 1016.0
20260506024443 64 110 0.0 0.0 0.00 0.00 0.00 74 1015.7
20260506023938 64 108 0.0 0.0 0.00 0.00 0.00 74 1015.2
20260506023436 65 108 0.0 0.0 0.00 0.00 0.00 73 1015.6
20260506022932 65 107 0.0 0.0 0.00 0.00 0.00 73 1015.2
20260506022430 65 107 0.0 0.0 0.00 0.00 0.00 72 1015.6
20260506021928 65 108 0.0 0.0 0.00 0.00 0.00 72 1015.7
20260506021425 66 110 0.0 0.0 0.00 0.00 0.00 71 1015.3
20260506020922 66 109 0.0 0.0 0.00 0.00 0.00 71 1015.3
20260506020420 66 110 0.0 0.0 0.00 0.00 0.00 70 1015.4
20260506015916 66 110 0.0 0.0 0.00 0.00 0.00 69 1015.2
20260506015414 67 110 0.0 0.0 0.00 0.00 0.00 69 1015.2
20260506014911 67 109 0.0 0.0 0.00 0.00 0.00 68 1015.4
20260506014408 67 109 0.0 0.0 0.00 0.00 0.00 68 1015.2
20260506013904 68 110 0.0 0.0 0.00 0.00 0.00 67 1015.4
20260506013402 68 110 0.0 0.0 0.00 0.00 0.00 66 1015.6
20260506012858 68 112 0.0 0.0 0.00 0.00 0.00 66 1015.6
20260506012355 68 115 0.0 0.0 0.00 0.00 0.00 65 1015.3
20260506011852 69 110 0.0 0.0 0.00 0.00 0.00 64 1015.3
20260506011349 70 106 0.0 0.0 0.00 0.00 0.00 63 1015.2
20260506010846 70 106 0.0 0.0 0.00 0.00 0.00 62 1015.2
20260506010345 70 111 0.0 0.0 0.00 0.00 0.00 61 1015.4
20260506005841 70 111 0.0 0.0 0.00 0.00 0.00 61 1015.4
20260506005338 71 105 0.0 0.0 0.00 0.00 0.00 61 1015.4
20260506004833 71 110 0.0 0.0 0.00 0.00 0.00 59 1015.1
20260506004332 72 111 0.0 0.0 0.00 0.00 0.00 59 1015.1
20260506003827 72 113 0.0 0.0 0.00 0.00 0.00 57 1015.2
20260506003324 73 108 0.0 0.0 0.00 0.00 0.00 56 1014.9
20260506002820 73 112 0.0 0.0 0.00 0.00 0.00 55 1014.9
20260506002317 74 106 0.0 0.0 0.00 0.00 0.00 55 1015.0
20260506001812 74 119 0.0 0.0 0.00 0.00 0.00 55 1014.7
20260506001310 75 110 0.0 0.0 0.00 0.00 0.00 54 1014.8
20260506000807 76 108 0.0 0.0 0.00 0.00 0.00 53 1014.6
20260506000304 76 111 0.0 0.0 0.00 0.00 0.00 51 1014.5
20260505235801 77 104 0.0 0.0 0.00 0.00 0.00 50 1014.4
20260505235259 77 109 0.0 0.0 0.00 0.00 0.00 49 1014.2
20260505234755 78 116 0.0 0.0 0.00 0.00 0.00 48 1014.5
20260505234253 78 112 0.0 0.0 0.00 0.00 0.00 47 1014.3
20260505233750 78 116 0.0 0.0 0.00 0.00 0.00 47 1014.3
20260505233248 78 110 0.0 0.0 0.00 0.00 0.00 46 1014.3
20260505232744 78 130 0.0 1.0 0.00 0.00 0.00 45 1014.4
20260505232242 79 115 0.0 0.0 0.00 0.00 0.00 45 1014.7
20260505231738 79 112 0.0 0.0 0.00 0.00 0.00 45 1014.2
20260505231237 79 118 0.0 1.0 0.00 0.00 0.00 44 1014.6
20260505230735 80 118 0.0 0.0 0.00 0.00 0.00 44 1014.5
20260505230231 80 88 0.0 1.0 0.00 0.00 0.00 44 1014.4
20260505225728 80 112 0.0 0.0 0.00 0.00 0.00 44 1014.2
20260505225225 80 119 1.0 1.0 0.00 0.00 0.00 44 1014.7
20260505224720 81 128 1.0 1.0 0.00 0.00 0.00 43 1014.7
20260505224218 82 117 1.0 1.0 0.00 0.00 0.00 43 1014.7
20260505223716 82 140 1.0 1.0 0.00 0.00 0.00 43 1014.8
20260505223212 83 118 0.0 1.0 0.00 0.00 0.00 43 1014.8
20260505222708 83 125 1.0 1.0 0.00 0.00 0.00 41 1015.0
20260505222204 83 130 0.0 1.0 0.00 0.00 0.00 42 1014.7
20260505221701 84 139 0.0 1.0 0.00 0.00 0.00 41 1014.8
20260505221158 84 147 1.0 1.0 0.00 0.00 0.00 41 1014.6
20260505220655 85 128 1.0 1.0 0.00 0.00 0.00 41 1014.7
20260505220153 84 129 0.0 1.0 0.00 0.00 0.00 41 1014.8
20260505215650 84 106 1.0 1.0 0.00 0.00 0.00 40 1014.6
20260505215148 84 139 2.0 2.0 0.00 0.00 0.00 39 1015.0
20260505214646 85 143 1.0 1.0 0.00 0.00 0.00 39 1015.0
20260505214143 84 115 0.0 0.0 0.00 0.00 0.00 41 1015.0
20260505213640 84 117 0.0 1.0 0.00 0.00 0.00 40 1014.9
20260505213137 85 127 0.0 1.0 0.00 0.00 0.00 38 1015.0
20260505212632 86 130 0.0 1.0 0.00 0.00 0.00 38 1014.9
20260505212131 85 128 1.0 1.0 0.00 0.00 0.00 39 1014.9
20260505211627 84 125 0.0 1.0 0.00 0.00 0.00 39 1014.7
20260505211125 84 122 1.0 1.0 0.00 0.00 0.00 40 1014.7
20260505210621 85 126 1.0 1.0 0.00 0.00 0.00 39 1014.9
20260505210118 85 116 0.0 1.0 0.00 0.00 0.00 40 1015.0
20260505205615 85 108 0.0 0.0 0.00 0.00 0.00 39 1014.7
20260505205113 84 105 0.0 1.0 0.00 0.00 0.00 40 1014.7
20260505204610 85 107 1.0 2.0 0.00 0.00 0.00 38 1014.9
20260505204108 86 109 2.0 3.0 0.00 0.00 0.00 38 1015.1
20260505203604 84 105 0.0 1.0 0.00 0.00 0.00 39 1015.4
20260505203101 83 127 0.0 0.0 0.00 0.00 0.00 41 1015.3
20260505202557 84 117 1.0 1.0 0.00 0.00 0.00 40 1015.4
20260505202053 83 132 2.0 2.0 0.00 0.00 0.00 41 1015.4
20260505201550 84 110 0.0 0.0 0.00 0.00 0.00 39 1015.3
20260505201048 84 116 0.0 1.0 0.00 0.00 0.00 40 1015.5
20260505200545 85 165 1.0 1.0 0.00 0.00 0.00 40 1015.4
20260505200042 83 110 0.0 1.0 0.00 0.00 0.00 42 1015.5
20260505195538 84 137 1.0 2.0 0.00 0.00 0.00 40 1015.6
20260505195036 85 102 0.0 1.0 0.00 0.00 0.00 39 1015.7
20260505194533 85 112 0.0 1.0 0.00 0.00 0.00 39 1015.7
20260505194028 84 116 1.0 1.0 0.00 0.00 0.00 41 1015.7
20260505193526 86 110 0.0 0.0 0.00 0.00 0.00 38 1016.0
20260505193023 86 102 0.0 0.0 0.00 0.00 0.00 37 1016.0
20260505192521 86 111 0.0 0.0 0.00 0.00 0.00 38 1016.0
20260505192019 84 121 0.0 1.0 0.00 0.00 0.00 40 1016.4
20260505191517 82 121 1.0 1.0 0.00 0.00 0.00 42 1016.4
20260505191014 83 114 1.0 1.0 0.00 0.00 0.00 40 1016.3
20260505190509 84 135 0.0 1.0 0.00 0.00 0.00 41 1016.5
20260505190005 85 105 0.0 1.0 0.00 0.00 0.00 38 1016.5
20260505185502 84 110 0.0 1.0 0.00 0.00 0.00 39 1016.5
20260505184958 84 122 1.0 1.0 0.00 0.00 0.00 41 1016.7
20260505184455 83 114 1.0 1.0 0.00 0.00 0.00 42 1016.8
20260505183952 84 130 1.0 2.0 0.00 0.00 0.00 39 1017.0
20260505183449 83 132 1.0 1.0 0.00 0.00 0.00 42 1016.9
20260505182945 84 113 0.0 1.0 0.00 0.00 0.00 41 1016.9
20260505182442 84 122 1.0 2.0 0.00 0.00 0.00 41 1017.1
20260505181938 83 127 1.0 1.0 0.00 0.00 0.00 42 1016.9
20260505181436 83 105 1.0 1.0 0.00 0.00 0.00 43 1017.1
20260505180933 83 131 1.0 1.0 0.00 0.00 0.00 42 1017.6
20260505180429 83 127 1.0 1.0 0.00 0.00 0.00 42 1017.2
20260505175926 84 151 1.0 1.0 0.00 0.00 0.00 42 1017.2
20260505175422 84 162 1.0 1.0 0.00 0.00 0.00 40 1017.4
20260505174918 83 167 1.0 1.0 0.00 0.00 0.00 41 1017.3
20260505174416 83 154 2.0 2.0 0.00 0.00 0.00 41 1017.3
20260505173912 83 110 0.0 1.0 0.00 0.00 0.00 42 1017.2
20260505173408 82 103 1.0 1.0 0.00 0.00 0.00 42 1017.6
20260505172906 83 124 1.0 1.0 0.00 0.00 0.00 41 1017.6
20260505172404 82 160 1.0 2.0 0.00 0.00 0.00 42 1017.5
20260505171903 82 144 1.0 1.0 0.00 0.00 0.00 43 1017.4
20260505171400 82 127 1.0 1.0 0.00 0.00 0.00 43 1017.7
20260505170856 82 100 0.0 1.0 0.00 0.00 0.00 45 1017.7
20260505170354 80 117 1.0 1.0 0.00 0.00 0.00 45 1017.6
20260505165849 80 133 0.0 1.0 0.00 0.00 0.00 45 1017.8
20260505165344 80 120 1.0 1.0 0.00 0.00 0.00 47 1017.6
20260505164840 80 118 1.0 1.0 0.00 0.00 0.00 46 1017.7
20260505164337 80 130 0.0 1.0 0.00 0.00 0.00 46 1017.8
20260505163836 80 112 1.0 1.0 0.00 0.00 0.00 45 1017.9
20260505163334 80 117 0.0 1.0 0.00 0.00 0.00 47 1017.9
20260505162832 80 122 1.0 1.0 0.00 0.00 0.00 48 1017.9
20260505162328 79 110 0.0 0.0 0.00 0.00 0.00 49 1018.1
20260505161825 80 118 1.0 1.0 0.00 0.00 0.00 50 1018.0
20260505161322 79 110 1.0 1.0 0.00 0.00 0.00 49 1017.9
20260505160820 79 113 1.0 1.0 0.00 0.00 0.00 52 1017.9
20260505160318 79 105 0.0 1.0 0.00 0.00 0.00 52 1018.2
20260505153256 77 94 0.0 0.0 0.00 0.00 0.00 59 1018.2
20260505152754 77 107 0.0 0.0 0.00 0.00 0.00 60 1018.6
20260505152249 77 107 0.0 1.0 0.00 0.00 0.00 60 1018.4
20260505151744 76 96 0.0 1.0 0.00 0.00 0.00 61 1018.4
20260505151242 75 107 0.0 1.0 0.00 0.00 0.00 61 1018.8
20260505150738 74 130 1.0 1.0 0.00 0.00 0.00 64 1018.6
20260505150236 73 115 0.0 1.0 0.00 0.00 0.00 64 1018.9
20260505140200 69 112 0.0 0.0 0.00 0.00 0.00 74 1018.1
20260505130124 62 121 0.0 1.0 0.00 0.00 0.00 86 1018.2
20260505124613 60 114 0.0 0.0 0.00 0.00 0.00 89 1018.4
20260505124110 59 118 0.0 1.0 0.00 0.00 0.00 90 1018.0
20260505123606 59 119 0.0 0.0 0.00 0.00 0.00 91 1018.0
20260505123103 58 117 0.0 0.0 0.00 0.00 0.00 92 1017.9
20260505122559 58 117 0.0 0.0 0.00 0.00 0.00 93 1018.0
20260505122056 57 108 0.0 0.0 0.00 0.00 0.00 93 1017.9
20260505121553 56 105 0.0 0.0 0.00 0.00 0.00 93 1017.8
20260505121050 55 105 0.0 0.0 0.00 0.00 0.00 93 1017.6
20260505120546 55 106 0.0 0.0 0.00 0.00 0.00 93 1017.6
20260505120042 55 108 0.0 0.0 0.00 0.00 0.00 93 1017.8
20260505115536 54 108 0.0 0.0 0.00 0.00 0.00 93 1017.6
20260505115034 53 108 0.0 0.0 0.00 0.00 0.00 93 1017.7
20260505114531 53 107 0.0 0.0 0.00 0.00 0.00 93 1017.5
20260505114027 52 107 0.0 0.0 0.00 0.00 0.00 93 1017.6
20260505113524 52 108 0.0 0.0 0.00 0.00 0.00 93 1017.4
20260505113020 51 107 0.0 0.0 0.00 0.00 0.00 92 1017.4
20260505112516 51 107 0.0 0.0 0.00 0.00 0.00 92 1017.2
20260505112014 51 108 0.0 0.0 0.00 0.00 0.00 92 1017.1
20260505111508 51 107 0.0 0.0 0.00 0.00 0.00 92 1017.1
20260505111005 51 108 0.0 0.0 0.00 0.00 0.00 92 1017.2
20260505110501 51 108 0.0 0.0 0.00 0.00 0.00 92 1017.4
20260505101933 51 107 0.0 0.0 0.00 0.00 0.00 90 1016.9
20260505101427 51 106 0.0 0.0 0.00 0.00 0.00 90 1016.9
20260505100923 51 106 0.0 0.0 0.00 0.00 0.00 90 1016.8
20260505100420 52 106 0.0 0.0 0.00 0.00 0.00 90 1017.0
20260505095915 52 106 0.0 0.0 0.00 0.00 0.00 90 1016.9
20260505095413 52 106 0.0 0.0 0.00 0.00 0.00 89 1017.0
20260505094909 53 108 0.0 0.0 0.00 0.00 0.00 89 1017.1
20260505094406 53 108 0.0 0.0 0.00 0.00 0.00 89 1017.1
20260505093901 53 108 0.0 0.0 0.00 0.00 0.00 89 1017.1
20260505093359 53 108 0.0 0.0 0.00 0.00 0.00 88 1017.1
20260505092856 53 108 0.0 0.0 0.00 0.00 0.00 88 1017.2
20260505092354 53 106 0.0 0.0 0.00 0.00 0.00 88 1017.1
20260505091851 53 108 0.0 0.0 0.00 0.00 0.00 88 1017.2
20260505091349 54 105 0.0 0.0 0.00 0.00 0.00 87 1016.8